Weather in Nagoya

Japan     35°08′47″N   136°55′04″E
temp.,
°C
wind,
m/s
gust,
m/s
humid.,
%
clouds,
%
prec.,
mm/h
press.,
hPa
HPBL,
m
28 november, sun
sun2800:00+6n37640 0.0 1030411
03:00+5n36641 0.0 1030269
06:00+4n37664 0.0 1031249
09:00+7n37540 0.0 1033424
12:00+12nw45350 0.0 10311146
15:00+13nw34280 0.0 10301244
18:00+10nw26380 0.0 1031266
21:00+8nne24470 0.0 1032219
29 november, mon
mon2900:00+7nne22495 0.0 1033138
03:00+6nne1251100 0.0 1032104
06:00+5ne1252100 0.0 103184
09:00+7nne1242100 0.0 1032221
12:00+12nw1132100 0.0 1030534
15:00+13w1132100 0.0 1028690
18:00+11n113697 0.0 102816
21:00+9ne2246100 0.0 102940
30 november, tue
tue3000:00+8nne2263100 0.0 102972
03:00+7nne23630 0.0 102780
06:00+7n22530 0.0 102651
09:00+10ne11472 0.0 1026183
12:00+13ssw2348100 0.0 1023538
15:00+16sse5105672 0.0 10181318
18:00+15se61363100 0.1 10161187
21:00+14se61376100 0.9 1014774
1 december, wed
wed100:00+16sse81883100 1.9 10081521
03:00+16s101990100 9.0 10031442
06:00+14wsw2786100 20.4 1005485
09:00+10wnw6106687 20.8 10091349
12:00+11wnw8134620 0.0 10091955
15:00+10wnw7135072 0.1 10091969
18:00+7wnw6146878 0.1 10111438
21:00+7wnw5127337 0.3 10141290
2 december, thu
thu200:00+6wnw48697 0.1 10151008
03:00+6nw257379 0.1 1016598
06:00+5nw35794 0.0 1018364
09:00+6nnw24633 0.0 1019536
12:00+9nnw34485 0.0 10171046
15:00+10nnw23494 0.0 10171142
18:00+9n12542 0.0 101967
21:00+8nne11620 0.0 102037